KC5NAM Weather Reports


Display with metric or nautical units.
time (UTC)temp
F
wind
direction
speed
MPH
gust
MPH
rain 1hr
in
rain 24hr
in
rain mn
in
humidity
%
barometer
mb
20260508105535 64 0 0.0 2.0 0.00 0.00 0.00 81 1017.8
20260508105034 64 0 0.0 3.0 0.00 0.00 0.00 81 1017.5
20260508104546 64 0 0.0 3.0 0.00 0.00 0.00 81 1017.1
20260508104033 64 0 0.0 6.0 0.00 0.00 0.00 80 1016.9
20260508103535 64 0 0.0 7.0 0.00 0.00 0.00 79 1016.8
20260508103043 64 28 1.0 7.0 0.00 0.00 0.00 78 1016.8
20260508102533 64 0 0.0 5.0 0.00 0.00 0.00 78 1017.1
20260508102034 64 70 0.0 6.0 0.00 0.00 0.00 78 1017.2
20260508101548 64 78 2.0 6.0 0.00 0.00 0.00 77 1016.9
20260508101034 64 61 2.0 5.0 0.00 0.00 0.00 78 1016.7
20260508100535 64 96 1.0 5.0 0.00 0.00 0.00 77 1016.9
20260508100047 64 26 1.0 5.0 0.00 0.00 0.00 77 1017.3
20260508095536 64 342 0.0 6.0 0.00 0.00 0.00 77 1017.6
20260508095036 64 352 1.0 6.0 0.00 0.00 0.00 77 1017.8
20260508094552 64 0 2.0 7.0 0.00 0.00 0.00 77 1017.8
20260508094036 64 0 1.0 7.0 0.00 0.00 0.00 77 1017.6
20260508093537 64 0 0.0 5.0 0.00 0.00 0.00 77 1017.5
20260508093053 64 0 0.0 7.0 0.00 0.00 0.00 77 1017.4
20260508092536 64 0 1.0 8.0 0.00 0.00 0.00 77 1017.3
20260508092036 64 5 0.0 8.0 0.00 0.00 0.00 77 1017.1
20260508091549 64 65 1.0 8.0 0.00 0.00 0.00 77 1017.2
20260508091037 64 65 0.0 8.0 0.00 0.00 0.00 76 1017.5
20260508090536 64 0 0.0 5.0 0.00 0.00 0.00 76 1017.4
20260508090104 64 0 0.0 5.0 0.00 0.00 0.00 76 1017.5
20260508085536 64 326 0.0 4.0 0.00 0.00 0.00 76 1017.9
20260508085035 64 333 0.0 4.0 0.00 0.00 0.00 75 1017.9
20260508084548 64 0 0.0 6.0 0.00 0.00 0.00 76 1017.8
20260508084036 64 0 0.0 6.0 0.00 0.00 0.00 76 1017.5
20260508083538 64 336 1.0 6.0 0.00 0.00 0.00 76 1017.4
20260508083042 64 0 1.0 9.0 0.00 0.00 0.00 76 1017.4
20260508082536 64 360 3.0 9.0 0.00 0.00 0.00 76 1017.3
20260508082036 64 347 0.0 9.0 0.00 0.00 0.00 76 1017.1
20260508081548 64 0 1.0 8.0 0.00 0.00 0.00 75 1017.2
20260508081037 64 5 2.0 8.0 0.00 0.00 0.00 76 1017.3
20260508080536 64 316 0.0 9.0 0.00 0.00 0.00 76 1017.3
20260508080053 64 38 0.0 9.0 0.00 0.00 0.00 76 1017.3
20260508075536 65 323 2.0 8.0 0.00 0.00 0.00 75 1017.5
20260508075042 65 22 1.0 8.0 0.00 0.00 0.00 75 1017.7
20260508074543 65 321 1.0 5.0 0.00 0.00 0.00 75 1017.8
20260508074037 65 0 0.0 3.0 0.00 0.00 0.00 75 1017.9
20260508073536 65 309 0.0 3.0 0.00 0.00 0.00 75 1017.9
20260508073053 65 0 0.0 2.0 0.00 0.00 0.00 75 1018.0
20260508072539 65 0 0.0 3.0 0.00 0.00 0.00 75 1018.0
20260508072036 65 0 0.0 3.0 0.00 0.00 0.00 75 1017.8
20260508071549 65 0 0.0 0.0 0.00 0.00 0.00 74 1018.0
20260508071036 65 0 0.0 4.0 0.00 0.00 0.00 75 1018.2
20260508070539 65 0 0.0 7.0 0.00 0.00 0.00 75 1018.2
20260508070050 65 293 0.0 7.0 0.00 0.00 0.00 74 1018.2
20260508065550 65 69 3.0 6.0 0.00 0.00 0.00 74 1017.5
20260508065035 65 0 1.0 4.0 0.00 0.00 0.00 74 1017.8
20260508064542 65 0 0.0 4.0 0.00 0.00 0.00 74 1018.0
20260508064037 65 0 0.0 7.0 0.00 0.00 0.00 74 1018.0
20260508063538 65 78 1.0 7.0 0.00 0.00 0.00 74 1018.0
20260508063041 65 100 0.0 4.0 0.00 0.00 0.00 74 1018.0
20260508062536 65 0 0.0 7.0 0.00 0.00 0.00 74 1017.9
20260508062036 65 0 1.0 8.0 0.00 0.00 0.00 74 1017.8
20260508061541 65 53 1.0 8.0 0.00 0.00 0.00 74 1017.5
20260508061036 65 44 1.0 8.0 0.00 0.00 0.00 74 1017.7
20260508060537 65 34 1.0 6.0 0.00 0.00 0.00 74 1017.8
20260508060049 65 30 1.0 5.0 0.00 0.00 0.00 74 1018.0
20260508055536 65 0 1.0 5.0 0.00 0.00 0.00 74 1018.5
20260508055036 65 11 1.0 10.0 0.00 0.00 0.00 74 1018.8
20260508054604 65 0 1.0 10.0 0.00 0.00 0.00 74 1018.9
20260508054035 65 44 0.0 5.0 0.00 0.00 0.00 74 1019.0
20260508053538 65 352 1.0 5.0 0.00 0.00 0.00 74 1019.1
20260508053045 65 0 0.0 7.0 0.00 0.00 0.00 74 1019.3
20260508052536 65 311 1.0 7.0 0.00 0.00 0.00 74 1019.3
20260508052038 66 0 0.0 6.0 0.00 0.00 0.00 74 1019.3
20260508051542 66 279 0.0 3.0 0.00 0.00 0.00 73 1019.4
20260508051036 66 283 0.0 2.0 0.00 0.00 0.00 74 1019.4
20260508050537 65 0 0.0 1.0 0.00 0.00 0.00 74 1019.1
20260508050050 65 0 0.0 5.0 0.00 0.00 0.00 74 1018.4
20260508045536 65 0 0.0 6.0 0.00 0.00 0.00 73 1018.0
20260508045036 65 59 2.0 9.0 0.00 0.00 0.00 73 1017.8
20260508044557 65 0 2.0 9.0 0.00 0.00 0.00 73 1017.5
20260508044037 65 0 1.0 9.0 0.00 0.00 0.00 73 1017.7
20260508043536 65 352 1.0 10.0 0.00 0.00 0.00 73 1017.6
20260508043048 65 47 2.0 10.0 0.00 0.00 0.00 73 1017.5
20260508042538 66 42 2.0 10.0 0.00 0.00 0.00 73 1017.5
20260508042036 66 26 2.0 10.0 0.00 0.00 0.00 73 1017.8
20260508041556 66 46 2.0 10.0 0.00 0.00 0.00 73 1017.9
20260508041036 66 0 1.0 9.0 0.00 0.00 0.00 73 1017.9
20260508040536 66 0 1.0 9.0 0.00 0.00 0.00 73 1017.8
20260508040056 66 43 1.0 12.0 0.00 0.00 0.00 73 1017.9
20260508035536 66 12 1.0 12.0 0.00 0.00 0.00 73 1018.2
20260508035036 66 341 1.0 11.0 0.00 0.00 0.00 72 1018.5
20260508034555 66 9 2.0 11.0 0.00 0.00 0.00 73 1018.8
20260508034058 66 0 2.0 8.0 0.00 0.00 0.00 73 1018.7
20260508033533 66 329 1.0 8.0 0.00 0.00 0.00 73 1018.9
20260508033044 66 41 1.0 7.0 0.00 0.00 0.00 74 1019.0
20260508032538 66 302 2.0 5.0 0.00 0.00 0.00 74 1019.0
20260508032035 66 22 1.0 7.0 0.00 0.00 0.00 75 1018.7
20260508031558 66 0 0.0 7.0 0.00 0.00 0.00 75 1018.8
20260508031034 66 0 1.0 7.0 0.00 0.00 0.00 75 1018.7
20260508030534 66 352 0.0 3.0 0.00 0.00 0.00 76 1018.6
20260508030106 66 308 0.0 3.0 0.00 0.00 0.00 75 1018.7
20260508025534 66 0 0.0 2.0 0.00 0.00 0.00 75 1018.4
20260508025034 66 0 0.0 2.0 0.00 0.00 0.00 76 1018.5
20260508024540 66 0 0.0 0.0 0.00 0.00 0.00 75 1018.4
20260508024034 66 0 0.0 0.0 0.00 0.00 0.00 75 1018.3
20260508023535 66 0 0.0 1.0 0.00 0.00 0.00 74 1018.3
20260508023047 66 0 0.0 3.0 0.00 0.00 0.00 74 1018.3
20260508022534 66 0 0.0 3.0 0.00 0.00 0.00 74 1018.3
20260508022035 66 0 0.0 2.0 0.00 0.00 0.00 74 1018.1
20260508021542 67 0 0.0 2.0 0.00 0.00 0.00 73 1018.2
20260508021035 67 0 0.0 2.0 0.00 0.00 0.00 73 1018.2
20260508020534 67 0 0.0 3.0 0.00 0.00 0.00 73 1018.1
20260508020041 67 0 0.0 6.0 0.00 0.00 0.00 73 1017.9
20260508015534 67 0 0.0 6.0 0.00 0.00 0.00 73 1017.9
20260508015034 67 78 0.0 8.0 0.00 0.00 0.00 72 1017.5
20260508014540 67 52 2.0 8.0 0.00 0.00 0.00 72 1017.2
20260508014037 67 101 3.0 8.0 0.00 0.00 0.00 72 1016.9
20260508013535 67 97 3.0 6.0 0.00 0.00 0.00 72 1017.1
20260508013039 67 101 1.0 10.0 0.00 0.00 0.00 72 1017.1
20260508012534 67 84 1.0 10.0 0.00 0.00 0.00 71 1017.1
20260508012034 67 65 2.0 10.0 0.00 0.00 0.00 71 1016.7
20260508011554 67 59 3.0 10.0 0.00 0.00 0.00 71 1016.5
20260508011035 67 84 4.0 10.0 0.00 0.00 0.00 71 1016.6
20260508010534 67 81 5.0 10.0 0.00 0.00 0.00 70 1016.7
20260508010050 67 78 4.0 10.0 0.00 0.00 0.00 70 1016.6
20260508005536 68 95 3.0 10.0 0.00 0.00 0.00 70 1016.8
20260508005034 68 82 5.0 11.0 0.00 0.00 0.00 69 1017.0
20260508004542 68 54 3.0 11.0 0.00 0.00 0.00 70 1017.4
20260508004035 68 61 3.0 11.0 0.00 0.00 0.00 69 1017.4
20260508003535 68 28 2.0 7.0 0.00 0.00 0.00 69 1017.6
20260508003044 68 55 3.0 7.0 0.00 0.00 0.00 68 1017.7
20260508002534 68 120 1.0 10.0 0.00 0.00 0.00 69 1017.6
20260508002034 68 73 2.0 10.0 0.00 0.00 0.00 69 1017.9
20260508001543 68 74 2.0 8.0 0.00 0.00 0.00 68 1017.8
20260508001034 68 73 1.0 6.0 0.00 0.00 0.00 68 1018.0
20260508000534 68 54 1.0 9.0 0.00 0.00 0.00 68 1018.4
20260508000048 68 360 3.0 10.0 0.00 0.00 0.00 68 1018.5
20260507235534 68 5 2.0 13.0 0.00 0.00 0.00 68 1018.4
20260507235034 69 278 3.0 13.0 0.00 0.00 0.00 68 1018.2
20260507234542 69 26 2.0 10.0 0.00 0.00 0.00 68 1018.4
20260507234034 69 10 3.0 10.0 0.00 0.00 0.00 67 1018.4
20260507233535 69 352 1.0 12.0 0.00 0.00 0.00 67 1018.7
20260507233043 69 5 2.0 12.0 0.00 0.00 0.00 67 1018.7
20260507232538 69 39 2.0 10.0 0.00 0.00 0.00 67 1018.5
20260507232034 69 76 2.0 11.0 0.00 0.00 0.00 67 1018.3
20260507231550 70 331 3.0 11.0 0.00 0.00 0.00 66 1018.4
20260507231034 70 84 1.0 11.0 0.00 0.00 0.00 66 1018.4
20260507230536 70 65 3.0 9.0 0.00 0.00 0.00 67 1018.3
20260507230041 70 27 1.0 9.0 0.00 0.00 0.00 67 1018.6
20260507225534 70 0 0.0 14.0 0.00 0.00 0.00 68 1018.8
20260507225034 70 0 3.0 14.0 0.00 0.00 0.00 67 1019.0
20260507224558 70 46 2.0 12.0 0.00 0.00 0.00 67 1018.7
20260507224034 70 0 0.0 12.0 0.00 0.00 0.00 68 1018.8
20260507223534 69 349 2.0 12.0 0.00 0.00 0.00 67 1019.0
20260507223047 69 352 3.0 13.0 0.00 0.00 0.00 68 1018.8
20260507222535 70 35 2.0 13.0 0.00 0.00 0.00 68 1019.2
20260507222034 70 317 3.0 12.0 0.00 0.00 0.00 68 1019.3
20260507221543 70 13 3.0 12.0 0.00 0.00 0.00 68 1019.2
20260507221034 70 28 1.0 12.0 0.00 0.00 0.00 69 1019.2
20260507220535 70 0 3.0 12.0 0.00 0.00 0.00 68 1019.2
20260507220040 70 332 3.0 11.0 0.00 0.00 0.00 69 1019.0
20260507215535 70 0 2.0 13.0 0.00 0.00 0.00 69 1019.2
20260507215035 70 314 3.0 13.0 0.00 0.00 0.00 69 1019.2
20260507214541 70 24 3.0 13.0 0.00 0.00 0.00 70 1019.2
20260507214034 71 349 3.0 13.0 0.00 0.00 0.00 69 1019.2
20260507213534 71 49 2.0 12.0 0.00 0.00 0.00 70 1019.1
20260507213047 71 15 4.0 12.0 0.00 0.00 0.00 69 1019.1
20260507212534 72 331 2.0 11.0 0.00 0.00 0.00 68 1019.2
20260507212036 72 301 4.0 16.0 0.00 0.00 0.00 66 1019.1
20260507211544 73 325 4.0 16.0 0.00 0.00 0.00 66 1018.9
20260507211035 73 5 5.0 15.0 0.00 0.00 0.00 66 1018.8
20260507210536 74 46 3.0 11.0 0.00 0.00 0.00 65 1018.9
20260507210108 74 0 2.0 13.0 0.00 0.00 0.00 67 1018.5
20260507205536 74 352 5.0 13.0 0.00 0.00 0.00 65 1018.7
20260507205039 75 35 2.0 10.0 0.00 0.00 0.00 66 1018.8
20260507204538 75 78 3.0 12.0 0.00 0.00 0.00 65 1018.7
20260507204036 76 60 2.0 12.0 0.00 0.00 0.00 65 1018.7
20260507203536 76 0 2.0 11.0 0.00 0.00 0.00 64 1018.9
20260507203040 76 26 4.0 11.0 0.00 0.00 0.00 64 1018.8
20260507202539 76 0 1.0 12.0 0.00 0.00 0.00 64 1018.6
20260507202036 75 0 4.0 12.0 0.00 0.00 0.00 66 1018.7
20260507201538 75 35 2.0 11.0 0.00 0.00 0.00 66 1018.7
20260507201036 75 352 3.0 12.0 0.00 0.00 0.00 67 1018.9
20260507200537 73 13 3.0 12.0 0.00 0.00 0.00 70 1019.0
20260507200055 72 313 2.0 10.0 0.00 0.00 0.00 70 1019.1
20260507195539 72 15 2.0 10.0 0.00 0.00 0.00 70 1019.2
20260507195037 71 0 2.0 14.0 0.00 0.00 0.00 70 1019.2
20260507194541 72 330 4.0 14.0 0.00 0.00 0.00 70 1019.0
20260507194036 71 335 2.0 12.0 0.00 0.00 0.00 70 1018.9
20260507193538 71 0 1.0 11.0 0.00 0.00 0.00 71 1018.7
20260507193109 71 20 4.0 15.0 0.00 0.00 0.00 70 1018.7
20260507192537 71 69 3.0 15.0 0.00 0.00 0.00 71 1019.0
20260507192036 71 336 4.0 15.0 0.00 0.00 0.00 71 1019.3
20260507191545 71 352 3.0 9.0 0.00 0.00 0.00 71 1019.4
20260507191038 71 5 1.0 9.0 0.00 0.00 0.00 71 1019.7
20260507190537 71 85 2.0 9.0 0.00 0.00 0.00 72 1019.7
20260507190047 70 84 2.0 7.0 0.00 0.00 0.00 73 1019.7
20260507185536 70 0 1.0 9.0 0.00 0.00 0.00 73 1019.8
20260507185036 70 347 2.0 10.0 0.00 0.00 0.00 73 1020.0
20260507184542 69 18 1.0 10.0 0.00 0.00 0.00 74 1020.3
20260507184036 69 339 4.0 10.0 0.00 0.00 0.00 73 1020.2
20260507183535 69 21 2.0 9.0 0.00 0.00 0.00 74 1020.4
20260507183049 69 0 1.0 9.0 0.00 0.00 0.00 75 1020.7
20260507182538 68 342 2.0 10.0 0.00 0.00 0.00 75 1020.9
20260507182037 68 308 2.0 11.0 0.00 0.00 0.00 74 1020.9
20260507181540 69 27 3.0 11.0 0.00 0.00 0.00 73 1020.9
20260507181036 69 17 2.0 10.0 0.00 0.00 0.00 74 1020.7
20260507180537 68 0 3.0 10.0 0.00 0.00 0.00 74 1020.6
20260507180040 68 68 4.0 10.0 0.00 0.00 0.00 74 1020.6
20260507175536 68 80 3.0 9.0 0.00 0.00 0.00 75 1020.6
20260507175036 67 0 1.0 12.0 0.00 0.00 0.00 76 1020.7
20260507174546 67 0 2.0 14.0 0.00 0.00 0.00 77 1020.8
20260507174035 66 24 3.0 14.0 0.00 0.00 0.00 78 1020.8
20260507173536 66 19 4.0 12.0 0.00 0.00 0.00 78 1020.8
20260507173056 65 45 3.0 12.0 0.00 0.00 0.00 79 1020.9
20260507172535 65 5 2.0 12.0 0.00 0.00 0.00 80 1021.0
20260507172037 65 0 3.0 12.0 0.00 0.00 0.00 80 1021.0
20260507171551 64 69 2.0 12.0 0.00 0.00 0.00 80 1021.0
20260507171036 64 0 2.0 15.0 0.00 0.00 0.00 80 1021.1
20260507170536 64 5 2.0 15.0 0.00 0.00 0.00 80 1021.3
20260507170047 64 44 4.0 15.0 0.00 0.00 0.00 80 1021.5
20260507165536 64 283 2.0 14.0 0.00 0.00 0.00 80 1021.5
20260507165036 64 5 3.0 14.0 0.00 0.00 0.00 80 1021.5
20260507164540 64 340 2.0 12.0 0.00 0.00 0.00 81 1021.4
20260507164037 64 15 3.0 13.0 0.00 0.00 0.00 81 1021.4
20260507163537 64 70 3.0 13.0 0.00 0.00 0.00 81 1021.4
20260507163040 64 82 3.0 12.0 0.00 0.00 0.00 81 1021.3
20260507162536 64 325 2.0 12.0 0.00 0.00 0.00 81 1021.2
20260507162036 64 13 1.0 13.0 0.00 0.00 0.00 81 1021.1
20260507161605 63 324 3.0 15.0 0.00 0.00 0.00 81 1021.2
20260507161036 63 49 5.0 15.0 0.00 0.00 0.00 81 1021.1
20260507160537 64 28 3.0 14.0 0.00 0.00 0.00 81 1021.0
20260507155537 63 12 5.0 21.0 0.00 0.00 0.00 81 1020.9
20260507155036 64 328 6.0 21.0 0.00 0.00 0.00 81 1020.9
20260507154545 64 75 5.0 17.0 0.00 0.00 0.00 81 1021.0
20260507154037 64 43 4.0 17.0 0.00 0.00 0.00 81 1020.9
20260507153536 64 36 6.0 17.0 0.00 0.00 0.00 81 1020.4
20260507153046 64 5 4.0 17.0 0.00 0.00 0.00 81 1020.7
20260507152537 63 314 6.0 17.0 0.00 0.00 0.00 81 1020.6
20260507152036 64 295 7.0 18.0 0.00 0.00 0.00 80 1020.3
20260507151545 64 5 6.0 18.0 0.00 0.00 0.00 80 1020.3
20260507151037 64 322 5.0 17.0 0.00 0.00 0.00 81 1020.2
20260507150540 64 44 7.0 19.0 0.00 0.00 0.00 81 1019.9
20260507150043 64 334 3.0 19.0 0.00 0.00 0.00 82 1020.0
20260507145537 63 329 6.0 19.0 0.00 0.00 0.00 82 1020.1
20260507145035 63 360 7.0 17.0 0.00 0.00 0.00 82 1020.2
20260507144549 63 339 4.0 23.0 0.00 0.00 0.00 82 1020.4
20260507144038 63 5 6.0 25.0 0.00 0.00 0.00 83 1020.4
20260507143536 63 360 5.0 25.0 0.00 0.00 0.00 82 1020.3
20260507143051 63 45 4.0 15.0 0.00 0.00 0.00 83 1020.3
20260507142536 63 345 5.0 15.0 0.00 0.00 0.00 83 1020.2
20260507142040 63 346 5.0 16.0 0.00 0.00 0.00 83 1020.1
20260507141600 63 338 6.0 18.0 0.00 0.00 0.00 83 1020.1
20260507141037 63 291 2.0 18.0 0.00 0.00 0.00 83 1019.9
20260507140536 63 15 4.0 15.0 0.00 0.00 0.00 83 1019.9
20260507140052 62 5 3.0 14.0 0.00 0.00 0.00 83 1020.2
20260507135538 63 0 1.0 20.0 0.00 0.00 0.00 83 1020.2
20260507135037 62 352 7.0 20.0 0.00 0.00 0.00 83 1020.1
20260507134551 63 343 2.0 18.0 0.00 0.00 0.00 83 1020.0
20260507134036 63 329 6.0 18.0 0.00 0.00 0.00 83 1019.8
20260507133537 63 42 4.0 21.0 0.00 0.00 0.00 82 1020.1
20260507133050 63 280 4.0 21.0 0.00 0.00 0.00 82 1020.0
20260507132536 63 33 5.0 21.0 0.00 0.00 0.00 82 1019.9
20260507132036 63 55 4.0 14.0 0.00 0.00 0.00 82 1019.9
20260507131550 63 74 4.0 14.0 0.00 0.00 0.00 82 1019.8
20260507131036 63 314 3.0 14.0 0.00 0.00 0.00 82 1019.9
20260507130537 63 22 4.0 15.0 0.00 0.00 0.00 82 1019.8
20260507130051 63 346 4.0 15.0 0.00 0.00 0.00 81 1019.9
20260507125536 63 133 3.0 19.0 0.00 0.00 0.00 81 1020.0
20260507125036 63 334 5.0 19.0 0.00 0.00 0.00 81 1019.8
20260507124543 63 19 4.0 14.0 0.00 0.00 0.00 81 1019.7
20260507124039 63 340 4.0 14.0 0.00 0.00 0.00 81 1019.5
20260507123537 63 46 4.0 18.0 0.00 0.00 0.00 80 1019.5
20260507123046 63 5 4.0 18.0 0.00 0.00 0.00 81 1019.4
20260507122536 63 352 4.0 14.0 0.00 0.00 0.00 80 1019.4
20260507122038 64 53 4.0 14.0 0.00 0.00 0.00 80 1019.5
20260507121540 64 319 3.0 13.0 0.00 0.00 0.00 80 1019.4
20260507121037 64 340 3.0 13.0 0.00 0.00 0.00 80 1019.6
20260507120536 64 29 3.0 11.0 0.00 0.00 0.00 80 1019.5
20260507120039 64 334 2.0 11.0 0.00 0.00 0.00 80 1019.5
20260507115536 64 0 2.0 12.0 0.00 0.00 0.00 80 1019.4
20260507115037 64 43 3.0 12.0 0.00 0.00 0.00 80 1019.2
20260507114553 64 30 3.0 10.0 0.00 0.00 0.00 79 1018.9
20260507114035 64 40 4.0 10.0 0.00 0.00 0.00 79 1018.9
20260507113534 64 24 2.0 9.0 0.00 0.00 0.00 80 1018.6
20260507113044 64 344 1.0 10.0 0.00 0.00 0.00 80 1018.6
20260507112534 64 12 2.0 10.0 0.00 0.00 0.00 80 1018.5
20260507112033 64 0 1.0 8.0 0.00 0.00 0.00 80 1018.6
20260507111553 64 46 0.0 11.0 0.00 0.00 0.00 80 1018.6
20260507111033 64 26 1.0 11.0 0.00 0.00 0.00 80 1018.9
20260507110534 64 352 2.0 15.0 0.00 0.00 0.00 80 1018.6
20260507110049 64 0 3.0 15.0 0.00 0.00 0.00 79 1018.6